RH
28 31 40 58 56 55 54 48 44 36 40 51 54 52 49 50 61 61 61 54 98 66 61 50 43 39 41 46 47 38 30 22 18 16 18 19 19 18 16 15 15 14 14
28 29 29 41 46 49 52 44 45 47 48 42 38 38 44 52 64 76 62 62 90 100 64 56 42 43 49 46 40 36 31 26 20 18 20 20 20 18 17 15 15 14 14
23 28 30 31 33 42 46 50 51 49 46 43 37 36 42 63 71 76 69 95 86 66 68 44 46 51 48 46 50 49 42 31 22 19 21 22 21 20 17 15 16 16 15
19 22 25 35 36 35 48 53 53 52 46 44 36 33 42 56 68 85 91 86 61 48 45 46 52 51 53 56 56 56 51 36 24 20 21 22 21 19 18 17 17 18 17
14 17 21 27 38 49 54 57 53 50 47 43 39 37 42 60 77 80 77 99 46 43 46 52 54 54 55 55 56 57 55 43 25 19 21 21 18 16 17 19 19 18 15
14 14 22 28 35 55 55 55 54 55 52 42 41 44 52 56 83 94 76 74 43 46 51 54 55 56 57 56 56 57 57 48 26 20 21 19 17 18 18 18 17 14 8
15 15 22 31 36 52 57 57 55 58 56 44 42 41 44 48 95 99 53 42 46 50 54 55 58 58 60 58 58 59 60 46 24 21 18 16 16 16 16 15 10 7 6
25 23 24 33 43 51 62 60 56 58 57 49 43 39 38 96 95 55 46 44 51 53 56 58 61 63 62 61 61 63 59 34 22 19 16 16 16 17 14 10 7 6 7
25 28 24 38 40 63 63 62 56 56 59 56 45 39 46 95 86 52 45 50 52 54 59 63 66 68 66 65 66 66 46 25 20 17 17 17 17 14 10 8 8 8 8
24 21 49 47 40 54 56 61 60 58 62 58 47 41 55 73 47 46 49 52 54 59 65 70 72 74 70 69 69 57 31 21 18 17 18 18 14 11 10 10 10 12 11
26 30 49 51 47 37 42 55 63 62 61 59 49 44 44 47 48 48 53 55 59 65 70 73 77 78 73 72 66 40 24 18 18 19 18 14 12 11 11 12 14 14 14
22 21 32 57 46 42 51 61 66 66 63 59 52 48 48 49 51 53 56 60 64 68 71 76 81 78 76 72 49 26 20 18 19 19 15 12 11 12 14 15 15 14 12
34 22 31 59 60 54 60 64 68 64 66 61 57 52 50 52 54 57 61 64 67 69 74 80 82 79 78 55 30 21 20 21 20 15 12 11 12 14 16 16 14 11 6
57 22 26 22 56 62 64 69 66 66 68 64 63 58 56 58 60 63 65 68 70 73 78 83 82 83 60 33 22 20 22 20 16 14 13 14 16 18 17 14 11 6 6
69 46 49 52 58 68 70 71 70 71 69 68 68 61 61 62 65 67 70 72 74 78 82 84 84 63 34 22 21 22 20 16 13 13 16 18 20 18 15 10 6 8 16
72 60 58 62 67 74 73 74 73 68 67 66 66 66 66 66 68 71 74 76 78 83 87 84 64 34 23 22 23 21 16 14 13 16 20 21 18 15 10 5 10 20 21
65 64 65 69 76 78 77 73 72 71 68 67 69 68 68 70 72 75 78 80 84 88 85 62 31 24 23 24 21 16 14 14 18 21 20 18 16 10 5 8 15 18 24
69 69 71 75 79 79 80 81 79 73 70 71 72 70 70 72 77 81 84 89 88 86 46 27 24 24 25 20 16 14 14 19 22 21 19 16 9 5 7 13 17 19 30
72 74 78 84 83 85 82 81 78 73 73 72 70 71 76 82 86 88 92 87 64 36 25 24 25 26 19 16 14 15 20 21 20 19 15 7 5 7 16 20 20 24 34
78 80 85 89 88 79 75 75 76 76 76 77 82 86 87 87 92 88 68 44 28 25 25 26 24 17 15 13 19 22 20 19 18 15 6 6 9 17 23 22 26 32 51
70 74 83 89 85 83 81 86 92 90 87 87 88 88 93 86 66 46 31 25 24 25 26 21 18 15 15 20 22 22 20 18 12 5 6 9 15 23 24 27 35 55 71
64 73 78 80 84 90 94 94 90 88 89 91 90 81 63 47 32 25 24 25 26 24 19 17 15 19 22 22 20 19 16 7 5 6 8 13 21 24 26 35 61 76 77
67 71 79 79 82 85 89 93 93 90 85 75 62 46 32 24 24 24 26 26 21 19 14 13 17 20 20 19 17 11 4 4 6 7 11 22 25 26 32 60 82 84 84
70 72 74 80 82 84 87 83 80 72 60 43 31 23 24 24 26 26 22 20 16 13 15 18 19 18 18 15 7 5 6 6 6 9 18 26 27 33 53 84 91 92 93
74 79 83 86 84 80 76 69 55 39 28 22 23 24 25 26 23 20 17 14 14 16 18 20 18 16 13 6 6 7 6 7 11 18 24 26 28 43 82 89 94 97 96
78 78 78 79 73 63 47 34 24 22 24 23 24 25 22 19 17 14 14 16 19 23 23 21 19 12 6 8 8 7 8 15 21 22 24 27 36 78 85 88 93 99 96
Wind_Speed
42 49 49 48 45 41 36 34 29 28 29 31 34 33 31 29 28 25 24 21 20 16 21 14 14 15 16 18 20 23 25 25 26 25 26 26 27 27 27 28 30 31 32
39 44 48 50 47 43 37 35 27 27 28 28 27 27 27 28 27 26 22 18 25 18 22 16 15 15 16 19 22 25 26 27 28 28 28 28 29 29 29 30 31 32 33
42 42 43 47 46 43 35 31 28 27 28 26 26 25 26 28 27 25 22 17 24 19 18 15 15 15 18 21 24 26 28 30 30 30 31 33 34 35 32 31 32 32 33
37 38 42 44 43 41 34 32 30 27 27 24 24 23 22 23 25 22 21 19 19 18 15 14 15 17 19 23 26 28 30 32 33 33 33 34 37 39 41 38 38 39 38
29 31 35 42 38 37 33 33 29 26 24 22 22 21 21 23 23 23 22 24 18 15 13 14 16 18 22 25 28 31 33 34 35 35 36 37 38 40 43 45 40 39 39
24 26 28 37 40 39 36 35 29 23 21 20 21 20 20 23 22 25 20 21 17 14 14 15 17 21 24 27 30 33 36 37 38 38 38 39 40 42 45 48 47 47 43
22 24 28 35 40 42 38 36 31 23 20 19 21 22 22 22 21 24 18 18 15 14 15 17 20 23 26 30 33 36 38 39 39 39 40 41 41 42 43 46 49 53 54
17 20 28 31 38 41 38 37 32 24 21 19 21 23 24 22 24 23 22 18 16 16 17 19 22 25 29 32 36 38 40 41 41 41 41 41 42 43 45 47 51 55 57
20 21 27 29 38 41 37 33 32 27 23 20 22 23 23 26 27 24 21 19 18 18 20 22 25 28 32 35 38 40 41 42 42 42 41 41 43 44 46 49 52 56 64
22 22 23 24 33 43 39 35 32 28 25 22 22 23 24 28 24 23 22 20 19 21 23 25 28 31 35 38 40 42 43 42 42 42 42 43 45 46 48 50 53 55 58
21 25 28 24 30 37 40 37 34 31 27 24 22 25 25 25 24 23 22 21 22 23 25 28 31 34 37 40 42 44 44 43 42 43 44 45 47 48 49 51 53 56 59
20 29 26 24 29 34 36 37 32 30 27 24 24 26 26 25 24 24 23 23 24 26 28 30 34 37 40 42 44 44 43 43 43 43 45 46 48 49 50 53 55 58 59
17 26 28 27 28 35 37 34 32 28 27 25 25 27 27 26 25 24 24 25 26 28 30 33 36 39 41 44 45 44 43 43 44 45 47 48 50 51 53 55 58 59 58
16 27 30 29 29 37 36 32 31 26 26 24 26 27 26 25 24 24 26 27 28 30 32 35 37 40 43 44 44 43 43 44 45 46 48 50 51 53 55 57 59 58 56
16 23 25 31 34 37 34 31 26 24 25 25 27 26 25 25 25 26 26 27 30 32 34 36 39 42 43 43 42 43 44 45 46 47 48 49 51 53 56 56 55 52 49
18 21 24 29 32 31 28 26 23 24 25 24 25 24 24 25 26 26 27 29 31 33 34 37 40 41 41 41 42 44 46 47 48 49 49 51 53 55 54 52 48 46 44
22 26 27 28 27 24 21 21 21 22 22 23 22 22 24 24 25 27 28 30 31 33 36 38 39 39 40 41 43 45 47 48 49 50 51 53 55 54 51 47 45 42 36
26 27 26 25 22 20 20 20 21 21 20 20 20 21 23 24 25 27 28 29 31 35 36 37 37 38 41 42 44 46 47 48 49 51 52 54 52 49 47 45 43 38 35
24 23 22 20 18 18 19 19 19 19 18 18 20 22 23 23 24 24 27 29 32 34 35 36 37 39 41 44 45 47 48 50 52 52 51 50 48 45 43 41 40 37 32
22 20 19 18 17 17 17 17 16 15 16 18 19 19 19 20 22 24 27 29 31 32 33 35 38 41 43 45 45 48 51 53 54 52 49 45 43 41 38 38 38 36 31
20 19 16 14 15 16 15 15 15 15 14 14 15 16 17 20 22 25 27 28 30 32 33 36 39 42 45 46 47 49 52 54 54 50 44 41 40 37 36 35 34 32 31
15 16 15 15 15 14 13 12 11 11 12 12 13 15 18 20 22 24 27 28 30 32 35 38 39 41 43 46 48 51 52 51 49 44 41 40 38 36 33 33 30 29 27
11 12 13 11 12 12 11 9 9 9 10 12 14 17 18 20 23 24 26 28 31 34 37 39 41 41 43 47 50 51 49 45 43 43 40 36 35 33 31 29 28 26 27
10 9 9 9 8 8 9 8 8 9 11 13 15 17 19 21 21 23 26 30 33 36 38 40 42 45 48 50 50 49 46 45 44 42 38 36 34 32 29 26 25 26 27
9 9 9 9 8 7 7 7 9 10 11 13 15 17 18 20 22 25 28 31 35 37 40 42 46 50 51 50 49 48 47 45 43 41 37 34 30 27 24 21 22 23 26
9 9 9 8 7 7 8 8 8 10 12 13 15 16 18 21 24 26 30 33 35 38 41 44 48 48 47 47 47 46 43 41 40 37 34 29 28 25 22 22 21 24 26
Wind_Direction
232 233 236 237 240 244 249 256 258 245 242 248 248 249 253 259 261 266 267 269 264 278 281 274 277 284 294 303 310 313 312 312 310 308 307 307 307 307 308 307 304 302 298
239 235 235 237 241 244 250 254 247 236 238 241 245 246 247 249 252 258 263 259 261 247 272 272 275 285 298 307 311 311 312 312 311 307 304 304 306 305 309 307 305 302 299
244 236 235 238 239 240 245 247 232 231 237 243 247 242 235 236 241 252 258 255 261 254 259 264 275 290 301 308 311 313 314 313 312 310 310 309 308 307 305 305 303 298 296
254 242 232 234 237 236 236 235 223 231 238 243 247 243 236 238 247 248 253 253 253 250 254 265 280 294 303 307 313 316 315 315 315 313 312 312 311 310 308 308 309 305 302
255 246 237 230 229 226 224 227 224 227 233 241 243 237 227 229 236 243 240 241 244 248 255 270 284 297 305 311 313 315 317 317 317 315 315 314 313 312 309 308 305 301 300
250 237 231 222 221 220 220 220 222 222 229 236 237 231 226 228 228 242 232 239 239 246 259 274 289 299 307 312 315 317 317 318 317 316 315 314 313 313 311 309 309 307 305
250 235 224 218 217 217 218 217 219 222 230 235 234 231 225 224 224 234 234 235 237 249 265 280 290 300 306 312 315 317 318 317 316 316 315 314 313 311 309 309 309 310 311
246 244 225 217 213 216 213 215 219 222 228 234 233 230 226 210 221 230 231 234 241 255 270 281 292 300 307 312 314 316 316 316 315 315 314 313 311 311 312 312 311 310 310
244 236 220 221 212 208 211 215 217 220 228 233 233 229 212 213 225 227 230 236 248 263 274 285 294 302 307 311 313 314 315 315 315 314 313 313 312 313 312 312 312 312 312
226 213 221 221 215 211 211 215 217 221 229 232 230 224 213 219 222 224 230 241 256 269 279 288 296 303 307 310 312 314 314 314 314 313 314 313 313 313 313 312 312 311 311
233 211 210 221 216 208 209 213 216 223 224 225 226 222 220 220 223 228 236 248 262 273 282 292 299 304 308 309 312 313 313 314 314 314 314 314 314 314 313 312 311 312 311
220 213 208 208 202 202 205 202 214 218 219 222 223 221 221 223 227 233 243 256 267 278 288 295 300 304 307 310 311 311 313 314 314 314 314 314 313 313 313 313 313 313 313
215 203 199 191 198 199 194 201 209 214 218 218 220 222 222 226 232 241 251 262 273 284 291 296 301 304 308 309 310 313 313 314 315 314 314 314 314 315 315 315 314 314 313
202 185 195 198 195 194 193 199 205 211 217 218 221 219 224 230 238 248 258 269 279 287 292 297 301 305 306 309 311 312 313 314 314 315 315 315 316 317 316 316 316 315 316
190 183 194 193 190 191 190 195 203 211 214 218 219 220 228 236 245 255 266 276 283 289 294 298 302 303 307 310 311 312 313 315 316 315 315 317 317 317 318 318 315 314 314
163 170 178 181 178 181 186 195 201 209 214 216 218 225 234 244 253 264 273 280 286 291 295 299 302 306 308 311 312 313 315 315 315 316 318 319 319 318 317 316 313 313 314
148 148 151 153 159 169 180 192 203 211 213 214 221 231 242 252 262 270 277 283 288 292 296 299 304 308 310 311 313 315 315 316 318 319 320 319 319 318 316 313 311 311 314
137 139 142 146 154 169 184 195 202 204 207 215 227 240 251 259 267 275 280 285 290 294 297 304 308 309 310 314 315 314 316 317 319 320 321 320 318 317 315 313 312 314 315
132 137 140 148 164 178 186 190 193 198 208 222 236 248 258 265 272 278 283 287 292 298 304 307 309 312 314 314 315 316 319 320 320 322 321 319 318 317 316 313 313 316 318
136 142 149 159 169 178 180 186 193 205 219 233 245 254 262 270 276 280 286 293 299 304 307 309 313 313 314 316 318 321 320 321 320 321 322 320 317 316 315 315 317 319 319
146 149 152 157 168 177 182 186 199 215 230 242 251 258 265 274 282 288 294 300 305 306 310 312 313 315 318 320 320 320 321 321 322 323 322 319 317 318 319 319 319 318 319
150 148 156 162 168 172 182 196 214 227 234 242 256 269 277 284 291 298 303 304 307 311 311 313 316 318 319 319 320 321 322 323 322 320 321 320 320 321 321 320 318 318 318
143 151 160 170 173 179 187 202 214 225 245 262 273 280 288 296 301 303 305 310 311 312 314 316 318 319 320 320 321 322 324 322 319 320 323 321 322 322 322 320 320 321 322
153 160 167 175 184 192 196 208 228 250 265 277 286 294 298 301 304 309 311 311 313 315 317 317 319 321 323 323 323 323 324 322 322 322 325 326 326 325 325 324 322 320 321
166 170 172 176 181 191 209 233 254 267 278 288 295 299 303 308 311 311 313 315 316 316 318 322 324 324 325 325 324 325 326 325 325 325 324 324 324 327 327 326 323 321 321
171 171 172 179 196 217 233 248 266 281 292 300 305 309 311 310 311 314 315 316 318 320 323 324 324 324 325 324 324 323 324 324 323 323 323 325 329 330 330 329 327 325 324